DECAYED

COSMOS 249 DEB *, 3753 (Decayed)

Orbit data source: Space-Track

COSMOS 249 DEB *, 3753 was space debris in LEO originally from a launch on Sun, 20 Oct 1968 UTC launched from the Tyuratam Missile And Space Complex (TTMTR). Debris objects in space refer to the collection of defunct objects orbiting the Earth. Examples of debris include non-operational satellites, rocket bodies, and fragments generated from explosions, collisions, or faulty payload assembly.

Not visible in the next 10 days
Identifier
3753, 1968-091AR
Orbit
Decayed
Country
Flag of CISCIS
Related business
Manufacturer
Unknown
Mission
Decayed spacecraft
Bus & Motor
Unknown
Mass
Unknown
Launch date (UTC)
1968-10-20 (58 years ago)
Launch vehicle
Unknown
Launch site
Tyuratam Missile And Space Complex (TTMTR)
Object type
Payload
Rocket body
Debris
Shape & HBR
Unknown shape, 0.1 m
Radar Cross Section
Medium (>0.1 m² and <1 m²)

Expand to show TLE details & history
Last TLE update: 10 months ago

TLE from 10 months ago
0 COSMOS 249 DEB *
1 03753U 68091AR  25245.57533316  .08021008  88367-5  37513-2 0  9990
2 03753  62.3694 325.0820 0018610  11.6526 348.5052 16.20726921894067
Epoch: 2025-09-02T13:48Z
TLE epoch observation values (Epoch: 2025-09-02T13:48:28.785Z)
Latitude
Longitude
135.99746°
Altitude
207.449 km
Speed
7.79 km/s
True Right ascension
21h 40m 19s
True Declination
0° 00' 00"
Sunlit
Object was in full shadow at epoch
Visualization orbit readout
Latitude
Unknown
Longitude
Unknown
Altitude
Unknown
Speed
Unknown
Apparent Right ascension
Unknown
Apparent Declination
Unknown
Sunlit
N/A
Visualization observer readout
Local Sidereal Time
10:32:27
Azimuth
Unknown
Elevation
Unknown
Doppler factor
Unknown
Orbital elements
Apogee altitude
228.671 km
Perigee altitude
204.126 km
Semi-major axis
6,594.536 km
Eccentricity
0.00186
Inclination
62.3694°
RAAN
325.082°
Arg. of periapsis
11.6526°
True anomaly
348.46261°
Mean anomaly
348.5052°
Eccentric anomaly
348.48391°
Mean motion
4.05291 °/min
Orbital period
88.83 mins
BSTAR
0.0037513
Loading maneuver chart data...
Computing Atmospheric mass density...

Documentation

Showing up to 5 results
|